Location: Helsinki
(60.1699°N, 24.9384°E)
Time: 06:46:15
(UTC+03:00)

A-11 Canister half - Visible Passes

Search period start: 28 May 2024 00:00
Search period end: 07 June 2024 00:00
Orbit: 1525 x 1683 km, 47.3° (Epoch: 27 May)

Date Brightness Start Highest point End Pass type
(mag) Time Alt. Az. Time Alt. Az. Time Alt. Az.
28 May 9.4 00:06:23 10° WSW 00:14:49 38° S 00:23:30 10° ESE visible
28 May 9.7 02:10:13 10° W 02:18:01 29° SSW 02:26:00 10° SSE visible
28 May 9.4 23:44:42 10° WSW 23:53:07 38° S 00:01:47 10° ESE visible
29 May 9.7 01:48:29 10° W 01:56:20 30° SSW 02:04:23 10° SSE visible
30 May 9.7 01:26:46 10° W 01:34:39 31° SSW 01:42:45 10° SSE visible
31 May 9.7 01:05:04 10° W 01:12:59 31° SSW 01:21:06 10° SE visible
01 Jun 9.7 00:43:21 10° W 00:51:18 32° SSW 00:59:28 10° SE visible
02 Jun 9.7 00:21:39 10° WSW 00:29:38 32° SSW 00:37:49 10° SE visible
02 Jun 10.2 02:26:45 10° W 02:32:14 17° SW 02:37:50 10° S visible
02 Jun 9.7 23:59:57 10° WSW 00:07:56 33° SSW 00:16:10 10° SE visible
03 Jun 10.2 02:04:56 10° W 02:10:36 18° SW 02:16:24 10° S visible
04 Jun 10.2 01:43:06 10° W 01:48:58 18° SW 01:54:56 10° S visible
05 Jun 10.2 01:21:18 10° W 01:27:19 19° SW 01:33:28 10° S visible
06 Jun 10.2 00:59:30 10° W 01:05:41 20° SW 01:11:59 10° S visible
